Content
SEND FEEDBACK

Daily
Averages
Monthly
Summary
United States of America

ADAMSVILLE, TEXAS


Home > North America > United States > Texas
Elevation: 1070 feet     Latitude: 31 18N     Longitude: 098 10W

WEATHER
 
SELECT A DAY
Number of Records: 85,947;   Date Range: 7/19/09 - 9/19/14
 
SHARE

PRINT THIS DATA

[ ← Previous Day ]
WEATHER ALMANAC - FEBRUARY 13, 2013
[ Next Day → ]
[ °C ]   °F
Weather ElementAverageHighLow
Temperature44.3 °F57.2 °F (2:35 pm)32 °F (7:35 am)
Dewpoint32 °F37.4 °F (11:35 am)24.8 °F (5:15 pm)
Humidity66.2 %100 % (7:35 am)29 % (5:15 pm)
Barometer30.09 in30.16 in (9:35 am)30.03 in (3:55 pm)
Wind Speed3.1 mph10.4 mph (10:55 am)
Wind Gust16.1 mph (12:55 am)
Weather ElementAverage
Visibility10 mi
Wind DirectionSSE (162.3 °)

Weather ElementTotal
Precipitation---
Heating Degree Days20.4 (Base 65)
Averaged from 71 records on February 13, 2013
WEATHER CONDITIONS BREAKOUT
WIND DIRECTION BREAKOUT
WEATHER BY HOUR - FEBRUARY 13, 2013
[ °C ]   °F
Local TimeTemperatureDewpointHumidityBarometerVisibilityWind DirectionWind SpeedGust SpeedPrecipitationEventsConditions
12:35 AM39.2 °F33.8 °F81 %30.06 in10.0 miNW (310°)6.9 mphClear
12:55 AM39.2 °F33.8 °F81 %30.06 in10.0 miNW (310°)9.2 mph16.1 mphClear
1:15 AM39.2 °F33.8 °F81 %30.07 in10.0 miNW (310°)9.2 mphClear
1:35 AM37.4 °F32.0 °F81 %30.08 in10.0 miNW (320°)6.9 mphClear
1:55 AM37.4 °F32.0 °F81 %30.08 in10.0 miNW (310°)5.8 mphClear
2:15 AM37.4 °F32.0 °F81 %30.08 in10.0 miNW (310°)6.9 mphClear
2:35 AM37.4 °F33.8 °F87 %30.07 in10.0 miNW (320°)5.8 mphClear
2:55 AM37.4 °F33.8 °F87 %30.09 in10.0 miCalmScattered Clouds
3:15 AM37.4 °F33.8 °F87 %30.10 in10.0 miNW (320°)3.5 mphMostly Cloudy
3:35 AM37.4 °F33.8 °F87 %30.11 in10.0 miNW (310°)3.5 mphOvercast
3:55 AM37.4 °F33.8 °F87 %30.11 in10.0 miNW (320°)4.6 mphOvercast
4:15 AM37.4 °F33.8 °F87 %30.10 in10.0 miCalmOvercast
4:35 AM37.4 °F33.8 °F87 %30.10 in10.0 miCalmMostly Cloudy
4:55 AM37.4 °F33.8 °F87 %30.10 in10.0 miCalmMostly Cloudy
5:15 AM35.6 °F33.8 °F93 %30.10 in10.0 miCalmScattered Clouds
5:35 AM33.8 °F32.0 °F93 %30.10 in10.0 miCalmClear
5:55 AM33.8 °F32.0 °F93 %30.11 in10.0 miWest (280°)3.5 mphClear
6:15 AM33.8 °F32.0 °F93 %30.11 in10.0 miWNW (290°)3.5 mphClear
6:35 AM33.8 °F32.0 °F93 %30.12 in10.0 miCalmClear
6:55 AM33.8 °F32.0 °F93 %30.12 in10.0 miWNW (290°)3.5 mphClear
7:15 AM33.8 °F32.0 °F93 %30.12 in10.0 miCalmClear
7:35 AM32.0 °F32.0 °F100 %30.13 in10.0 miCalmClear
7:55 AM33.8 °F32.0 °F93 %30.14 in10.0 miWest (260°)3.5 mphClear
8:15 AM35.6 °F32.0 °F87 %30.14 in10.0 miWest (270°)4.6 mphClear
8:35 AM37.4 °F33.8 °F87 %30.15 in10.0 miWest (280°)6.9 mphClear
8:55 AM39.2 °F33.8 °F81 %30.15 in10.0 miWest (270°)3.5 mphClear
9:15 AM39.2 °F33.8 °F81 %30.15 in10.0 miWest (280°)6.9 mphClear
9:35 AM41.0 °F33.8 °F76 %30.16 in10.0 miWNW (290°)8.1 mphClear
9:55 AM42.8 °F33.8 °F70 %30.16 in10.0 miWNW (290°)8.1 mphClear
10:15 AM42.8 °F33.8 °F70 %30.16 in10.0 miNW (310°)6.9 mphClear
10:35 AM44.6 °F33.8 °F66 %30.16 in10.0 miNNW (330°)6.9 mphClear
10:55 AM44.6 °F33.8 °F66 %30.15 in10.0 miWNW (290°)10.4 mphClear
11:15 AM46.4 °F35.6 °F66 %30.15 in10.0 miNorth (350°)5.8 mphClear
11:35 AM50.0 °F37.4 °F62 %30.14 in10.0 miNorth (350°)6.9 mphClear
11:55 AM50.0 °F33.8 °F54 %30.13 in10.0 miNorth (360°)6.9 mphClear
12:15 PM51.8 °F35.6 °F54 %30.12 in10.0 miNorth (350°)5.8 mphClear
12:35 PM51.8 °F33.8 °F50 %30.11 in10.0 miNW (320°)4.6 mphClear
12:55 PM53.6 °F33.8 °F47 %30.10 in10.0 miWest (260°)3.5 mphClear
1:15 PM53.6 °F33.8 °F47 %30.09 in10.0 miCalmClear
1:35 PM53.6 °F33.8 °F47 %30.08 in10.0 miNorth (350°)3.5 mphClear
1:55 PM55.4 °F32.0 °F41 %30.07 in10.0 miNW (320°)8.1 mphClear
2:15 PM53.6 °F30.2 °F41 %30.06 in10.0 miWSW (240°)5.8 mphClear
2:35 PM57.2 °F32.0 °F38 %30.05 in10.0 miCalmClear
2:55 PM57.2 °F30.2 °F36 %30.04 in10.0 miWNW (300°)5.8 mphClear
3:15 PM57.2 °F30.2 °F36 %30.04 in10.0 miWNW (300°)6.9 mphClear
3:35 PM57.2 °F28.4 °F33 %30.04 in10.0 miNNW (330°)3.5 mphClear
3:55 PM57.2 °F28.4 °F33 %30.03 in10.0 miCalmClear
4:15 PM57.2 °F26.6 °F31 %30.03 in10.0 miCalmClear
4:35 PM57.2 °F26.6 °F31 %30.03 in10.0 miNorth (360°)3.5 mphClear
4:55 PM57.2 °F26.6 °F31 %30.03 in10.0 miNorth (10°)5.8 mphClear
5:15 PM57.2 °F24.8 °F29 %30.03 in10.0 miCalmClear
5:35 PM57.2 °F26.6 °F31 %30.03 in10.0 miCalmClear
5:55 PM55.4 °F26.6 °F33 %30.03 in10.0 miCalmClear
6:15 PM53.6 °F30.2 °F41 %30.03 in10.0 miCalmClear
6:35 PM51.8 °F28.4 °F41 %30.03 in10.0 miCalmClear
6:55 PM44.6 °F32.0 °F61 %30.04 in10.0 miCalmClear
7:15 PM42.8 °F32.0 °F66 %30.04 in10.0 miCalmClear
7:35 PM48.2 °F30.2 °F50 %30.05 in10.0 miCalmClear
7:55 PM44.6 °F28.4 °F53 %30.05 in10.0 miCalmClear
8:15 PM44.6 °F28.4 °F53 %30.05 in10.0 miCalmClear
8:35 PM46.4 °F32.0 °F57 %30.05 in10.0 miCalmClear
8:55 PM44.6 °F32.0 °F61 %30.06 in10.0 miCalmClear
9:15 PM41.0 °F32.0 °F70 %30.06 in10.0 miCalmClear
9:35 PM42.8 °F32.0 °F66 %30.07 in10.0 miCalmClear
9:55 PM42.8 °F32.0 °F66 %30.07 in10.0 miCalmClear
10:15 PM42.8 °F32.0 °F66 %30.06 in10.0 miCalmClear
10:35 PM41.0 °F32.0 °F70 %30.07 in10.0 miCalmClear
10:55 PM41.0 °F32.0 °F70 %30.07 in10.0 miCalmClear
11:15 PM41.0 °F33.8 °F76 %30.07 in10.0 miCalmClear
11:35 PM41.0 °F33.8 °F76 %30.07 in10.0 miSW (230°)3.5 mphClear
11:55 PM41.0 °F33.8 °F76 %30.07 in10.0 miSW (220°)3.5 mphClear
Hourly data recorded from KLZZ, located miles away from Adamsville, Texas







STORIES FROM OUR PARTNERS